CZ-6A DEB

Satellite information

Favourite Embed

Satellite Type and Status

DEBRISIN ORBIT

Key statistics

Satellite CZ-6A DEB at a glance.

Uptime

910

Days in orbit

Revolutions

≈ 14.1

Per day

Orbit

SSO

Sun Synchronous Orbit

Inclination

98.8

Latest

Satellite identification and parameters

Extended collection of information and parameters for CZ-6A DEB.

Object identification

Identified? True

Debris? True

Object name: CZ-6A DEB

International designator: 2022-151AGA

Object number (NORAD): 56650

Object ID (CCSDS): 56650

Country: PEOPLES REPUBLIC OF CHINA (PRC)

Current information (Y/N): Y

RCS size: SMALL

Orbital parameters

Period: 101.795 minutes

Inclination: 98.824 deg

SMA: 7221.766 km

Apoapsis: 878.325 km

Periapsis: 808.937 km

RAAN: 131.4809 deg

Eccentricy: 0.0048041

Argument of periapsis: 39.9867 deg

Mean anomaly: 320.4828 deg

Mean motion: 14.14613004 rev/day

Mean motion (dot): 0.00003015 rev/day2

B* drag term: 0.0015739 1/REarth

Two-line elements (TLE)

Creation date: May 8, 2025, 3:01 a.m.

Reference frame: TEME

Reference center: EARTH

Epoch: May 7, 2025, 10:27 a.m. UTC

TLE line 0: 0 CZ-6A DEB

TLE line 1: 1 56650U 22151AGA 25127.43610936 .00003015 00000-0 15739-2 0 9998

TLE line 2: 2 56650 98.8240 131.4809 0048041 39.9867 320.4828 14.14613004113455

Live tracking on map

Real-time ground track for satellite CZ-6A DEB.

In-orbit conjunctions

A list of the most updated potential collisions computed for object CZ-6A DEB.

Target Orbit TCA Probability of collision Miss distance Type
SL-3 R/B SSO 2024-10-28 03:31:27 0.0001419279 761.0 (m) ROCKET BODY
METEOR 2-11 DEB LEO 2024-06-18 01:15:36 0.0002033618 668.0 (m) DEBRIS

Associated space launch

Chinese satellite reported for atmospheric/ocean/environmental/spatial parameter research purposes, details TBD.

CZ-6A DEB was lifted into orbit during the mission ‘Long March 6A | Yunhai 3’, on board a Long March 6A space rocket.

The launch took place on Nov. 11, 2022, 10:52 p.m. from Launch Complex 9A.

For more information about the launch, click the button.

Launch to space Long March 6A | Yunhai 3
Long March 6A | Yunhai 3

Agency: N/A

Status: Launch Successful

Launch date: Nov. 11, 2022, 10:52 p.m. UTC

Rocket: Long March 6A

Launch pad: Launch Complex 9A

Location: Taiyuan Satellite Launch Center, People's Republic of China

...

Latest news about this satellite

There are no fresh news available about this satellite. Check back as we update our databases every day.


Newsletter sign-up

Weekly statistics, charts and insights to help you stay on top of the space industry.